Time,TemperatureF,DewpointF,PressureIn,WindDirection,WindDirectionDegrees,WindSpeedMPH,WindSpeedGustMPH,Humidity,HourlyPrecipIn,Conditions,Clouds,dailyrainin,SoftwareType,DateUTC
2013-03-13 00:00:00,51.7,48.0,30.01,West,266,0.0,0.0,87,0.00,CLR,,0.00,WeatherDisplay:10.37,2013-03-13 04:00:00,
2013-03-13 00:05:00,51.6,47.9,30.01,West,266,0.0,0.0,87,0.00,CLR,,0.00,WeatherDisplay:10.37,2013-03-13 04:05:00,
2013-03-13 00:10:00,51.5,47.8,30.01,West,266,0.0,0.0,87,0.00,CLR,,0.00,WeatherDisplay:10.37,2013-03-13 04:10:00,
2013-03-13 00:15:00,51.4,47.7,30.01,West,266,0.0,0.0,87,0.00,CLR,,0.00,WeatherDisplay:10.37,2013-03-13 04:15:00,
2013-03-13 00:20:00,51.4,47.7,30.01,West,266,0.0,0.0,87,0.00,CLR,,0.00,WeatherDisplay:10.37,2013-03-13 04:20:00,
2013-03-13 00:25:00,51.4,47.7,30.02,West,279,1.0,0.0,87,0.00,CLR,,0.00,WeatherDisplay:10.37,2013-03-13 04:25:00,
2013-03-13 00:30:00,51.5,47.5,30.02,West,274,0.0,1.0,86,0.00,CLR,CLR,0.00,WeatherDisplay:10.37,2013-03-13 04:30:00,
2013-03-13 00:35:00,51.9,47.5,30.02,West,279,0.0,0.0,85,0.00,CLR,,0.00,WeatherDisplay:10.37,2013-03-13 04:35:00,
2013-03-13 00:40:00,52.2,47.5,30.01,West,279,0.0,0.0,84,0.00,CLR,,0.00,WeatherDisplay:10.37,2013-03-13 04:40:00,
2013-03-13 00:45:00,52.4,47.4,30.01,West,279,0.0,0.0,83,0.00,CLR,,0.00,WeatherDisplay:10.37,2013-03-13 04:45:00,
2013-03-13 00:50:00,52.5,47.5,30.01,West,279,0.0,0.0,83,0.00,CLR,,0.00,WeatherDisplay:10.37,2013-03-13 04:50:00,
2013-03-13 00:55:00,52.7,47.4,30.01,West,279,0.0,0.0,82,0.00,CLR,,0.00,WeatherDisplay:10.37,2013-03-13 04:55:00,
2013-03-13 01:00:00,52.8,47.5,30.01,NW,305,0.0,2.0,82,0.00,CLR,CLR,0.00,WeatherDisplay:10.37,2013-03-13 05:00:00,
2013-03-13 01:05:00,52.9,47.2,30.01,NNE,17,1.1,0.0,81,0.00,CLR,,0.00,WeatherDisplay:10.37,2013-03-13 05:05:00,
2013-03-13 01:10:00,53.0,47.0,30.01,NNE,17,0.0,0.0,80,0.00,CLR,,0.00,WeatherDisplay:10.37,2013-03-13 05:10:00,
2013-03-13 01:15:00,53.0,47.0,30.01,North,5,1.0,0.0,80,0.00,CLR,,0.00,WeatherDisplay:10.37,2013-03-13 05:15:00,
2013-03-13 01:20:00,53.1,47.1,30.01,NNE,13,2.3,2.3,80,0.00,CLR,,0.00,WeatherDisplay:10.37,2013-03-13 05:20:00,
2013-03-13 01:25:00,53.1,46.8,30.01,North,5,2.3,2.3,79,0.00,CLR,,0.00,WeatherDisplay:10.37,2013-03-13 05:25:00,
2013-03-13 01:30:00,53.1,46.8,30.01,North,5,1.1,0.0,79,0.00,CLR,,0.00,WeatherDisplay:10.37,2013-03-13 05:30:00,
2013-03-13 01:35:00,53.2,46.5,30.02,NNW,339,1.1,1.1,78,0.00,CLR,,0.00,WeatherDisplay:10.37,2013-03-13 05:35:00,
2013-03-13 01:40:00,53.2,46.2,30.02,North,11,2.3,2.3,77,0.00,CLR,,0.00,WeatherDisplay:10.37,2013-03-13 05:40:00,
2013-03-13 01:45:00,53.2,45.8,30.02,North,5,3.5,3.5,76,0.00,CLR,,0.00,WeatherDisplay:10.37,2013-03-13 05:45:00,
2013-03-13 01:50:00,53.3,45.9,30.02,NW,325,5.0,5.0,76,0.00,CLR,,0.00,WeatherDisplay:10.37,2013-03-13 05:50:00,
2013-03-13 01:55:00,53.4,45.7,30.02,NNW,332,4.6,4.6,75,0.00,CLR,,0.00,WeatherDisplay:10.37,2013-03-13 05:55:00,
2013-03-13 02:00:00,53.5,45.8,30.02,North,359,1.0,7.0,75,0.00,CLR,CLR,0.00,WeatherDisplay:10.37,2013-03-13 06:00:00,
2013-03-13 02:05:00,53.5,45.4,30.02,North,351,3.5,3.5,74,0.00,CLR,,0.00,WeatherDisplay:10.37,2013-03-13 06:05:00,
2013-03-13 02:10:00,53.6,45.5,30.02,North,355,3.5,3.5,74,0.00,CLR,,0.00,WeatherDisplay:10.37,2013-03-13 06:10:00,
2013-03-13 02:15:00,53.7,45.2,30.02,North,349,2.3,2.3,73,0.00,CLR,,0.00,WeatherDisplay:10.37,2013-03-13 06:15:00,
2013-03-13 02:20:00,53.7,45.2,30.03,NNE,13,3.0,3.0,73,0.00,CLR,,0.00,WeatherDisplay:10.37,2013-03-13 06:20:00,
2013-03-13 02:25:00,53.7,44.9,30.02,NNE,22,3.5,3.5,72,0.00,CLR,,0.00,WeatherDisplay:10.37,2013-03-13 06:25:00,
2013-03-13 02:30:00,53.8,45.0,30.03,North,3,1.0,5.0,72,0.00,CLR,CLR,0.00,WeatherDisplay:10.37,2013-03-13 06:30:00,
2013-03-13 02:35:00,53.7,44.9,30.03,NNW,344,3.5,3.5,72,0.00,CLR,,0.00,WeatherDisplay:10.37,2013-03-13 06:35:00,
2013-03-13 02:40:00,53.7,44.9,30.03,NNE,15,3.5,3.5,72,0.00,CLR,,0.00,WeatherDisplay:10.37,2013-03-13 06:40:00,
2013-03-13 02:45:00,53.7,44.9,30.03,NNE,23,3.5,3.5,72,0.00,CLR,,0.00,WeatherDisplay:10.37,2013-03-13 06:45:00,
2013-03-13 02:50:00,53.7,44.9,30.02,North,350,3.5,3.5,72,0.00,CLR,,0.00,WeatherDisplay:10.37,2013-03-13 06:50:00,
2013-03-13 02:55:00,53.7,44.5,30.03,North,9,3.5,3.5,71,0.00,CLR,,0.00,WeatherDisplay:10.37,2013-03-13 06:55:00,
2013-03-13 03:00:00,53.6,44.8,30.03,North,360,3.5,3.5,72,0.00,CLR,,0.00,WeatherDisplay:10.37,2013-03-13 07:00:00,
2013-03-13 03:05:00,53.5,44.3,30.03,North,9,3.5,3.5,71,0.00,CLR,,0.00,WeatherDisplay:10.37,2013-03-13 07:05:00,
2013-03-13 03:10:00,53.4,44.6,30.03,North,10,1.1,1.1,72,0.00,CLR,,0.00,WeatherDisplay:10.37,2013-03-13 07:10:00,
2013-03-13 03:15:00,53.3,44.1,30.03,North,355,2.3,2.3,71,0.00,CLR,,0.00,WeatherDisplay:10.37,2013-03-13 07:15:00,
2013-03-13 03:20:00,53.2,44.4,30.03,NNW,342,3.5,3.5,72,0.00,CLR,,0.00,WeatherDisplay:10.37,2013-03-13 07:20:00,
2013-03-13 03:25:00,53.1,44.3,30.03,NNW,342,1.1,1.1,72,0.00,CLR,,0.00,WeatherDisplay:10.37,2013-03-13 07:25:00,
2013-03-13 03:30:00,53.0,44.2,30.03,North,355,1.0,3.0,72,0.00,CLR,CLR,0.00,WeatherDisplay:10.37,2013-03-13 07:30:00,
2013-03-13 03:35:00,52.9,44.1,30.03,North,360,4.6,4.6,72,0.00,CLR,,0.00,WeatherDisplay:10.37,2013-03-13 07:35:00,
2013-03-13 03:40:00,52.8,44.0,30.03,North,355,3.5,3.5,72,0.00,CLR,,0.00,WeatherDisplay:10.37,2013-03-13 07:40:00,
2013-03-13 03:45:00,52.7,43.9,30.03,NNE,24,3.5,3.5,72,0.00,CLR,,0.00,WeatherDisplay:10.37,2013-03-13 07:45:00,
2013-03-13 03:50:00,52.6,43.8,30.03,North,360,1.1,1.1,72,0.00,CLR,,0.00,WeatherDisplay:10.37,2013-03-13 07:50:00,
2013-03-13 03:55:00,52.5,43.7,30.03,NNE,14,3.5,3.5,72,0.00,CLR,,0.00,WeatherDisplay:10.37,2013-03-13 07:55:00,
2013-03-13 04:00:00,52.4,43.6,30.04,North,8,2.0,5.0,72,0.00,CLR,CLR,0.00,WeatherDisplay:10.37,2013-03-13 08:00:00,
2013-03-13 04:08:00,52.3,43.5,30.03,North,360,3.5,3.5,72,0.00,CLR,,0.00,WeatherDisplay:10.37,2013-03-13 08:08:00,
2013-03-13 04:13:00,52.3,43.5,30.04,North,5,3.5,3.5,72,0.00,CLR,,0.00,WeatherDisplay:10.37,2013-03-13 08:13:00,
2013-03-13 04:18:00,52.2,43.1,30.04,NW,326,6.9,6.9,71,0.00,CLR,,0.00,WeatherDisplay:10.37,2013-03-13 08:18:00,
2013-03-13 04:23:00,52.1,43.0,30.04,North,360,2.0,2.0,71,0.00,CLR,,0.00,WeatherDisplay:10.37,2013-03-13 08:23:00,
2013-03-13 04:28:00,52.0,42.9,30.04,NNW,338,3.5,3.5,71,0.00,CLR,,0.00,WeatherDisplay:10.37,2013-03-13 08:28:00,
2013-03-13 04:33:00,51.9,43.2,30.04,NNW,338,1.1,0.0,72,0.00,CLR,,0.00,WeatherDisplay:10.37,2013-03-13 08:33:00,
2013-03-13 04:38:00,51.9,42.8,30.04,North,5,1.1,0.0,71,0.00,CLR,,0.00,WeatherDisplay:10.37,2013-03-13 08:38:00,
2013-03-13 04:43:00,51.8,42.7,30.04,North,5,1.1,1.1,71,0.00,CLR,,0.00,WeatherDisplay:10.37,2013-03-13 08:43:00,
2013-03-13 04:48:00,51.7,42.2,30.04,North,5,3.5,3.5,70,0.00,CLR,,0.00,WeatherDisplay:10.37,2013-03-13 08:48:00,
2013-03-13 04:53:00,51.6,42.1,30.04,NNW,338,1.0,1.0,70,0.00,CLR,,0.00,WeatherDisplay:10.37,2013-03-13 08:53:00,
2013-03-13 04:58:00,51.6,42.1,30.05,North,5,2.0,0.0,70,0.00,CLR,,0.00,WeatherDisplay:10.37,2013-03-13 08:58:00,
2013-03-13 05:03:00,51.5,42.0,30.05,North,11,0.0,0.0,70,0.00,CLR,,0.00,WeatherDisplay:10.37,2013-03-13 09:03:00,
2013-03-13 05:08:00,51.3,42.2,30.05,NNE,13,0.0,0.0,71,0.00,CLR,,0.00,WeatherDisplay:10.37,2013-03-13 09:08:00,
2013-03-13 05:13:00,51.1,42.4,30.05,NNE,13,0.0,0.1,72,0.00,CLR,,0.00,WeatherDisplay:10.37,2013-03-13 09:13:00,
2013-03-13 05:18:00,50.9,42.2,30.05,NNE,13,1.1,1.1,72,0.00,CLR,,0.00,WeatherDisplay:10.37,2013-03-13 09:18:00,
2013-03-13 05:23:00,50.8,42.5,30.06,NNE,13,0.0,0.0,73,0.00,CLR,,0.00,WeatherDisplay:10.37,2013-03-13 09:23:00,
2013-03-13 05:28:00,50.6,42.3,30.06,NNE,13,0.0,0.0,73,0.00,CLR,,0.00,WeatherDisplay:10.37,2013-03-13 09:28:00,
2013-03-13 05:33:00,50.4,42.4,30.06,NNE,13,1.1,1.1,74,0.00,CLR,,0.00,WeatherDisplay:10.37,2013-03-13 09:33:00,
2013-03-13 05:38:00,50.2,42.2,30.06,NNE,13,0.0,0.0,74,0.00,CLR,,0.00,WeatherDisplay:10.37,2013-03-13 09:38:00,
2013-03-13 05:43:00,50.0,42.4,30.06,NNE,13,0.0,0.0,75,0.00,CLR,,0.00,WeatherDisplay:10.37,2013-03-13 09:43:00,
2013-03-13 05:48:00,49.9,42.3,30.07,NNE,13,0.0,0.0,75,0.00,CLR,,0.00,WeatherDisplay:10.37,2013-03-13 09:48:00,
2013-03-13 05:53:00,49.7,42.1,30.07,NNE,18,0.0,0.0,75,0.00,CLR,,0.00,WeatherDisplay:10.37,2013-03-13 09:53:00,
2013-03-13 05:58:00,49.6,42.3,30.07,NNE,18,2.3,2.3,76,0.00,CLR,,0.00,WeatherDisplay:10.37,2013-03-13 09:58:00,
2013-03-13 06:03:00,49.4,41.8,30.07,NNE,22,3.0,3.0,75,0.00,CLR,,0.00,WeatherDisplay:10.37,2013-03-13 10:03:00,
2013-03-13 06:08:00,49.3,41.7,30.08,North,5,1.1,1.1,75,0.00,CLR,,0.00,WeatherDisplay:10.37,2013-03-13 10:08:00,
2013-03-13 06:13:00,49.2,41.6,30.08,North,5,1.1,0.0,75,0.00,CLR,,0.00,WeatherDisplay:10.37,2013-03-13 10:13:00,
2013-03-13 06:18:00,49.2,42.0,30.08,NNW,345,2.3,2.3,76,0.00,CLR,,0.00,WeatherDisplay:10.37,2013-03-13 10:18:00,
2013-03-13 06:23:00,49.1,41.9,30.08,NNW,345,3.5,3.5,76,0.00,CLR,,0.00,WeatherDisplay:10.37,2013-03-13 10:23:00,
2013-03-13 06:28:00,49.0,41.8,30.08,NNE,17,2.3,2.3,76,0.00,CLR,,0.00,WeatherDisplay:10.37,2013-03-13 10:28:00,
2013-03-13 06:33:00,48.9,41.3,30.09,NNE,17,1.1,0.0,75,0.00,CLR,,0.00,WeatherDisplay:10.37,2013-03-13 10:33:00,
2013-03-13 06:38:00,48.9,41.3,30.09,NNE,25,2.3,2.3,75,0.00,CLR,,0.00,WeatherDisplay:10.37,2013-03-13 10:38:00,
2013-03-13 06:43:00,48.8,41.2,30.09,NNE,30,0.0,0.0,75,0.00,CLR,,0.00,WeatherDisplay:10.37,2013-03-13 10:43:00,
2013-03-13 06:48:00,48.7,41.5,30.09,NNE,19,1.1,1.1,76,0.00,CLR,,0.00,WeatherDisplay:10.37,2013-03-13 10:48:00,
2013-03-13 06:53:00,48.7,41.1,30.10,NE,34,2.3,2.3,75,0.00,CLR,,0.00,WeatherDisplay:10.37,2013-03-13 10:53:00,
2013-03-13 06:58:00,48.6,41.0,30.10,NNE,19,1.1,0.0,75,0.00,CLR,,0.00,WeatherDisplay:10.37,2013-03-13 10:58:00,
2013-03-13 07:03:00,48.5,40.9,30.10,NNE,22,1.1,1.1,75,0.00,CLR,,0.00,WeatherDisplay:10.37,2013-03-13 11:03:00,
2013-03-13 07:08:00,48.4,41.2,30.10,NNE,14,2.0,2.0,76,0.00,CLR,,0.00,WeatherDisplay:10.37,2013-03-13 11:08:00,
2013-03-13 07:13:00,48.3,41.1,30.11,NNE,13,2.3,2.3,76,0.00,CLR,,0.00,WeatherDisplay:10.37,2013-03-13 11:13:00,
2013-03-13 07:18:00,48.3,41.1,30.11,North,5,3.5,3.5,76,0.00,CLR,,0.00,WeatherDisplay:10.37,2013-03-13 11:18:00,
2013-03-13 07:23:00,48.2,41.0,30.11,North,360,2.3,2.3,76,0.00,CLR,,0.00,WeatherDisplay:10.37,2013-03-13 11:23:00,
2013-03-13 07:28:00,48.2,41.0,30.12,North,360,2.0,2.0,76,0.00,CLR,,0.00,WeatherDisplay:10.37,2013-03-13 11:28:00,
2013-03-13 07:33:00,48.1,40.9,30.12,North,360,1.1,1.1,76,0.00,CLR,,0.00,WeatherDisplay:10.37,2013-03-13 11:33:00,
2013-03-13 07:38:00,48.0,40.8,30.12,North,350,3.5,3.5,76,0.00,CLR,,0.00,WeatherDisplay:10.37,2013-03-13 11:38:00,
2013-03-13 07:43:00,47.9,40.7,30.12,North,5,2.3,2.3,76,0.00,CLR,,0.00,WeatherDisplay:10.37,2013-03-13 11:43:00,
2013-03-13 07:48:00,47.9,41.0,30.13,North,360,2.0,2.0,77,0.00,CLR,,0.00,WeatherDisplay:10.37,2013-03-13 11:48:00,
2013-03-13 07:53:00,47.9,40.7,30.13,North,355,3.5,3.5,76,0.00,CLR,,0.00,WeatherDisplay:10.37,2013-03-13 11:53:00,
2013-03-13 07:58:00,47.9,40.7,30.13,NNE,18,0.0,0.0,76,0.00,CLR,,0.00,WeatherDisplay:10.37,2013-03-13 11:58:00,
2013-03-13 08:03:00,47.8,40.6,30.13,NNW,333,3.5,3.5,76,0.00,CLR,,0.00,WeatherDisplay:10.37,2013-03-13 12:03:00,
2013-03-13 08:08:00,47.9,40.7,30.13,NNW,332,4.0,4.0,76,0.00,CLR,,0.00,WeatherDisplay:10.37,2013-03-13 12:08:00,
2013-03-13 08:13:00,47.9,40.7,30.13,North,360,3.5,3.5,76,0.00,CLR,,0.00,WeatherDisplay:10.37,2013-03-13 12:13:00,
2013-03-13 08:18:00,47.9,40.7,30.13,North,360,2.3,2.3,76,0.00,CLR,,0.00,WeatherDisplay:10.37,2013-03-13 12:18:00,
2013-03-13 08:23:00,48.1,40.9,30.13,NNW,340,3.5,3.5,76,0.00,CLR,,0.00,WeatherDisplay:10.37,2013-03-13 12:23:00,
2013-03-13 08:28:00,48.3,41.1,30.14,NNE,22,3.5,3.5,76,0.00,CLR,,0.00,WeatherDisplay:10.37,2013-03-13 12:28:00,
2013-03-13 08:33:00,48.6,41.0,30.14,NNE,13,3.5,3.5,75,0.00,CLR,,0.00,WeatherDisplay:10.37,2013-03-13 12:33:00,
2013-03-13 08:38:00,49.0,41.1,30.15,NNE,13,2.3,2.3,74,0.00,CLR,,0.00,WeatherDisplay:10.37,2013-03-13 12:38:00,
2013-03-13 08:43:00,49.4,41.1,30.15,North,5,3.5,3.5,73,0.00,CLR,,0.00,WeatherDisplay:10.37,2013-03-13 12:43:00,
2013-03-13 08:48:00,49.6,41.3,30.15,NNW,346,3.0,3.0,73,0.00,CLR,,0.00,WeatherDisplay:10.37,2013-03-13 12:48:00,
2013-03-13 08:53:00,49.9,40.9,30.15,North,355,3.5,3.5,71,0.00,CLR,,0.00,WeatherDisplay:10.37,2013-03-13 12:53:00,
2013-03-13 08:58:00,50.2,41.2,30.15,NNE,25,5.8,5.8,71,0.00,CLR,,0.00,WeatherDisplay:10.37,2013-03-13 12:58:00,
2013-03-13 09:03:00,50.6,41.5,30.15,North,9,3.5,3.5,71,0.00,CLR,,0.00,WeatherDisplay:10.37,2013-03-13 13:03:00,
2013-03-13 09:08:00,51.0,41.6,30.16,North,360,4.6,4.6,70,0.00,CLR,,0.00,WeatherDisplay:10.37,2013-03-13 13:08:00,
2013-03-13 09:13:00,51.4,41.9,30.16,North,355,5.8,5.8,70,0.00,CLR,,0.00,WeatherDisplay:10.37,2013-03-13 13:13:00,
2013-03-13 09:18:00,51.7,41.5,30.16,North,355,3.5,3.5,68,0.00,CLR,,0.00,WeatherDisplay:10.37,2013-03-13 13:18:00,
2013-03-13 09:23:00,52.3,42.0,30.16,North,360,3.5,3.5,68,0.00,CLR,,0.00,WeatherDisplay:10.37,2013-03-13 13:23:00,
2013-03-13 09:28:00,52.7,42.0,30.16,North,5,3.5,3.5,67,0.00,CLR,,0.00,WeatherDisplay:10.37,2013-03-13 13:28:00,
2013-03-13 09:33:00,53.2,41.7,30.16,NNW,338,4.6,4.6,65,0.00,CLR,,0.00,WeatherDisplay:10.37,2013-03-13 13:33:00,
2013-03-13 09:38:00,53.7,41.0,30.16,NNW,346,3.5,3.5,62,0.00,CLR,,0.00,WeatherDisplay:10.37,2013-03-13 13:38:00,
2013-03-13 09:43:00,54.3,42.0,30.16,North,5,3.5,3.5,63,0.00,CLR,,0.00,WeatherDisplay:10.37,2013-03-13 13:43:00,
2013-03-13 09:48:00,54.9,41.7,30.16,NNE,17,3.5,3.5,61,0.00,CLR,,0.00,WeatherDisplay:10.37,2013-03-13 13:48:00,
2013-03-13 09:53:00,55.4,41.3,30.16,North,355,6.9,6.9,59,0.00,CLR,,0.00,WeatherDisplay:10.37,2013-03-13 13:53:00,
2013-03-13 09:58:00,55.9,41.8,30.17,NNE,31,3.5,3.5,59,0.00,CLR,,0.00,WeatherDisplay:10.37,2013-03-13 13:58:00,
2013-03-13 10:03:00,56.2,40.2,30.17,NNW,348,4.6,4.6,55,0.00,CLR,,0.00,WeatherDisplay:10.37,2013-03-13 14:03:00,
2013-03-13 10:08:00,56.6,41.1,30.17,NNW,336,3.5,3.5,56,0.00,CLR,,0.00,WeatherDisplay:10.37,2013-03-13 14:08:00,
2013-03-13 10:13:00,57.1,41.1,30.18,North,11,4.0,4.0,55,0.00,CLR,,0.00,WeatherDisplay:10.37,2013-03-13 14:13:00,
2013-03-13 10:18:00,57.3,38.3,30.17,North,9,8.1,8.1,49,0.00,CLR,,0.00,WeatherDisplay:10.37,2013-03-13 14:18:00,
2013-03-13 10:23:00,57.6,40.1,30.17,North,5,3.5,3.5,52,0.00,CLR,,0.00,WeatherDisplay:10.37,2013-03-13 14:23:00,
2013-03-13 10:28:00,58.1,39.5,30.17,NNW,348,5.8,5.8,50,0.00,CLR,,0.00,WeatherDisplay:10.37,2013-03-13 14:28:00,
2013-03-13 10:33:00,58.6,39.5,30.17,North,355,7.0,7.0,49,0.00,CLR,,0.00,WeatherDisplay:10.37,2013-03-13 14:33:00,
2013-03-13 10:38:00,59.1,38.9,30.17,NNW,339,3.5,3.5,47,0.00,CLR,,0.00,WeatherDisplay:10.37,2013-03-13 14:38:00,
2013-03-13 10:43:00,59.6,40.4,30.17,North,360,3.5,3.5,49,0.00,CLR,,0.00,WeatherDisplay:10.37,2013-03-13 14:43:00,
2013-03-13 10:48:00,60.2,39.9,30.18,North,11,3.5,3.6,47,0.00,CLR,,0.00,WeatherDisplay:10.37,2013-03-13 14:48:00,
2013-03-13 10:53:00,60.6,39.7,30.17,North,360,5.8,5.8,46,0.00,CLR,,0.00,WeatherDisplay:10.37,2013-03-13 14:53:00,
2013-03-13 10:58:00,60.9,40.0,30.17,North,9,6.9,6.9,46,0.00,CLR,,0.00,WeatherDisplay:10.37,2013-03-13 14:58:00,
2013-03-13 11:03:00,61.1,39.6,30.17,North,351,4.6,4.6,45,0.00,CLR,,0.00,WeatherDisplay:10.37,2013-03-13 15:03:00,
2013-03-13 11:08:00,61.4,39.3,30.17,North,5,5.8,5.8,44,0.00,CLR,,0.00,WeatherDisplay:10.37,2013-03-13 15:08:00,
2013-03-13 11:13:00,61.8,40.2,30.17,North,360,3.0,3.0,45,0.00,CLR,,0.00,WeatherDisplay:10.37,2013-03-13 15:13:00,
2013-03-13 11:18:00,62.3,41.2,30.18,North,360,3.0,3.0,46,0.00,CLR,,0.00,WeatherDisplay:10.37,2013-03-13 15:18:00,
2013-03-13 11:23:00,62.9,40.6,30.17,NNW,345,5.0,5.0,44,0.00,CLR,,0.00,WeatherDisplay:10.37,2013-03-13 15:23:00,
2013-03-13 11:28:00,63.2,39.7,30.18,North,11,3.5,3.6,42,0.00,CLR,,0.00,WeatherDisplay:10.37,2013-03-13 15:28:00,
2013-03-13 11:33:00,63.5,41.2,30.18,North,351,3.5,3.5,44,0.00,CLR,,0.00,WeatherDisplay:10.37,2013-03-13 15:33:00,
2013-03-13 11:38:00,64.0,41.0,30.17,North,360,5.0,5.0,43,0.00,CLR,,0.00,WeatherDisplay:10.37,2013-03-13 15:38:00,
2013-03-13 11:43:00,64.5,39.6,30.17,North,355,3.5,3.5,40,0.00,CLR,,0.00,WeatherDisplay:10.37,2013-03-13 15:43:00,
2013-03-13 11:48:00,65.0,40.7,30.17,NNE,17,5.8,5.8,41,0.00,CLR,,0.00,WeatherDisplay:10.37,2013-03-13 15:48:00,
2013-03-13 11:53:00,65.2,38.9,30.17,NNW,336,5.8,5.8,38,0.00,CLR,,0.00,WeatherDisplay:10.37,2013-03-13 15:53:00,
2013-03-13 11:58:00,65.3,40.3,30.17,North,360,3.5,3.5,40,0.00,CLR,,0.00,WeatherDisplay:10.37,2013-03-13 15:58:00,
2013-03-13 12:03:00,65.5,41.8,30.17,NNW,344,3.0,3.0,42,0.00,CLR,,0.00,WeatherDisplay:10.37,2013-03-13 16:03:00,
2013-03-13 12:08:00,65.9,38.9,30.17,North,350,3.0,3.0,37,0.00,CLR,,0.00,WeatherDisplay:10.37,2013-03-13 16:08:00,
2013-03-13 12:13:00,66.3,39.2,30.17,North,355,2.3,2.3,37,0.00,CLR,,0.00,WeatherDisplay:10.37,2013-03-13 16:13:00,
2013-03-13 12:18:00,66.7,38.9,30.17,North,5,3.5,3.5,36,0.00,CLR,,0.00,WeatherDisplay:10.37,2013-03-13 16:18:00,
2013-03-13 12:23:00,67.1,40.6,30.17,NNE,15,3.5,3.5,38,0.00,CLR,,0.00,WeatherDisplay:10.37,2013-03-13 16:23:00,
2013-03-13 12:28:00,67.8,45.1,30.16,North,5,1.1,0.0,44,0.00,CLR,,0.00,WeatherDisplay:10.37,2013-03-13 16:28:00,
2013-03-13 12:33:00,68.4,40.4,30.16,North,355,4.6,4.6,36,0.00,CLR,,0.00,WeatherDisplay:10.37,2013-03-13 16:33:00,
2013-03-13 12:38:00,68.6,41.3,30.16,NNW,342,1.1,1.1,37,0.00,CLR,,0.00,WeatherDisplay:10.37,2013-03-13 16:38:00,
2013-03-13 12:43:00,69.0,37.9,30.16,North,5,3.5,3.5,32,0.00,CLR,,0.00,WeatherDisplay:10.37,2013-03-13 16:43:00,
2013-03-13 12:48:00,68.9,40.1,30.16,North,355,3.5,3.5,35,0.00,CLR,,0.00,WeatherDisplay:10.37,2013-03-13 16:48:00,
2013-03-13 12:53:00,68.9,41.5,30.16,North,355,3.5,3.5,37,0.00,CLR,,0.00,WeatherDisplay:10.37,2013-03-13 16:53:00,
2013-03-13 12:58:00,69.2,40.4,30.15,NNE,16,3.5,3.5,35,0.00,CLR,,0.00,WeatherDisplay:10.37,2013-03-13 16:58:00,
2013-03-13 13:03:00,69.6,42.9,30.15,North,5,1.1,1.3,38,0.00,CLR,,0.00,WeatherDisplay:10.37,2013-03-13 17:03:00,
2013-03-13 13:09:00,70.1,38.9,30.15,North,360,1.1,1.1,32,0.00,CLR,,0.00,WeatherDisplay:10.37,2013-03-13 17:09:00,
2013-03-13 13:14:00,70.1,41.2,30.15,SSW,205,3.5,3.5,35,0.00,CLR,,0.00,WeatherDisplay:10.37,2013-03-13 17:14:00,
2013-03-13 13:19:00,70.0,41.1,30.14,NNW,331,4.6,4.6,35,0.00,CLR,,0.00,WeatherDisplay:10.37,2013-03-13 17:19:00,
2013-03-13 13:24:00,70.3,37.4,30.14,NNW,348,8.1,8.1,30,0.00,CLR,,0.00,WeatherDisplay:10.37,2013-03-13 17:24:00,
2013-03-13 13:29:00,70.2,42.0,30.14,NNW,346,3.5,3.5,36,0.00,CLR,,0.00,WeatherDisplay:10.37,2013-03-13 17:29:00,
2013-03-13 13:33:00,70.3,39.0,30.14,North,355,3.5,3.5,32,0.00,CLR,,0.00,WeatherDisplay:10.37,2013-03-13 17:33:00,
2013-03-13 13:39:00,70.5,39.2,30.14,North,351,4.6,4.6,32,0.00,CLR,,0.00,WeatherDisplay:10.37,2013-03-13 17:39:00,
2013-03-13 13:43:00,70.6,37.6,30.13,NNW,342,3.5,3.5,30,0.00,CLR,,0.00,WeatherDisplay:10.37,2013-03-13 17:43:00,
2013-03-13 13:49:00,70.6,39.3,30.13,North,355,3.5,3.5,32,0.00,CLR,,0.00,WeatherDisplay:10.37,2013-03-13 17:49:00,
2013-03-13 13:53:00,70.8,41.0,30.12,North,360,5.8,5.8,34,0.00,CLR,,0.00,WeatherDisplay:10.37,2013-03-13 17:53:00,
2013-03-13 13:59:00,70.6,39.3,30.12,North,355,3.5,3.5,32,0.00,CLR,,0.00,WeatherDisplay:10.37,2013-03-13 17:59:00,
2013-03-13 14:03:00,70.7,43.8,30.12,North,5,4.6,4.6,38,0.00,CLR,,0.00,WeatherDisplay:10.37,2013-03-13 18:03:00,
2013-03-13 14:08:00,71.0,41.2,30.12,NNE,17,5.0,5.0,34,0.00,CLR,,0.00,WeatherDisplay:10.37,2013-03-13 18:08:00,
2013-03-13 14:13:00,71.3,39.9,30.11,North,9,4.6,4.6,32,0.00,CLR,,0.00,WeatherDisplay:10.37,2013-03-13 18:13:00,
2013-03-13 14:18:00,71.3,38.2,30.11,North,360,6.9,6.9,30,0.00,CLR,,0.00,WeatherDisplay:10.37,2013-03-13 18:18:00,
2013-03-13 14:24:00,71.3,40.7,30.11,North,10,9.2,9.2,33,0.00,CLR,,0.00,WeatherDisplay:10.37,2013-03-13 18:24:00,
2013-03-13 14:28:00,71.2,40.6,30.10,NNE,25,6.0,6.0,33,0.00,CLR,,0.00,WeatherDisplay:10.37,2013-03-13 18:28:00,
2013-03-13 14:33:00,71.2,36.4,30.10,North,355,4.6,4.6,28,0.00,CLR,,0.00,WeatherDisplay:10.37,2013-03-13 18:33:00,
2013-03-13 14:38:00,71.1,37.2,30.10,North,355,6.9,6.9,29,0.00,CLR,,0.00,WeatherDisplay:10.37,2013-03-13 18:38:00,
2013-03-13 14:43:00,71.1,38.1,30.10,NNW,345,5.8,5.8,30,0.00,CLR,,0.00,WeatherDisplay:10.37,2013-03-13 18:43:00,
2013-03-13 14:49:00,71.1,36.3,30.09,NNW,335,6.0,6.0,28,0.00,CLR,,0.00,WeatherDisplay:10.37,2013-03-13 18:49:00,
2013-03-13 14:54:00,71.1,39.7,30.09,North,360,5.8,5.8,32,0.00,CLR,,0.00,WeatherDisplay:10.37,2013-03-13 18:54:00,
2013-03-13 14:59:00,71.2,40.6,30.09,North,9,3.5,3.5,33,0.00,CLR,,0.00,WeatherDisplay:10.37,2013-03-13 18:59:00,
2013-03-13 15:04:00,71.5,40.1,30.08,NNW,344,8.1,8.1,32,0.00,CLR,,0.00,WeatherDisplay:10.37,2013-03-13 19:04:00,
2013-03-13 15:09:00,71.6,38.5,30.08,North,355,10.4,10.4,30,0.00,CLR,,0.00,WeatherDisplay:10.37,2013-03-13 19:09:00,
2013-03-13 15:14:00,71.6,41.0,30.09,NNW,329,9.2,9.2,33,0.00,CLR,,0.00,WeatherDisplay:10.37,2013-03-13 19:14:00,
2013-03-13 15:19:00,71.5,39.3,30.08,North,355,6.9,6.9,31,0.00,CLR,,0.00,WeatherDisplay:10.37,2013-03-13 19:19:00,
2013-03-13 15:24:00,71.3,38.2,30.08,North,355,5.8,5.8,30,0.00,CLR,,0.00,WeatherDisplay:10.37,2013-03-13 19:24:00,
2013-03-13 15:29:00,71.3,39.1,30.08,NNW,348,6.9,6.9,31,0.00,CLR,,0.00,WeatherDisplay:10.37,2013-03-13 19:29:00,
2013-03-13 15:34:00,71.3,38.2,30.08,North,5,5.0,5.0,30,0.00,CLR,,0.00,WeatherDisplay:10.37,2013-03-13 19:34:00,
2013-03-13 15:39:00,71.5,41.6,30.08,NNE,14,3.5,3.5,34,0.00,CLR,,0.00,WeatherDisplay:10.37,2013-03-13 19:39:00,
2013-03-13 15:44:00,71.7,39.4,30.08,North,360,5.8,5.8,31,0.00,CLR,,0.00,WeatherDisplay:10.37,2013-03-13 19:44:00,
2013-03-13 15:49:00,71.8,39.5,30.08,North,355,3.5,3.5,31,0.00,CLR,,0.00,WeatherDisplay:10.37,2013-03-13 19:49:00,
2013-03-13 15:54:00,72.0,38.0,30.08,North,360,2.3,2.3,29,0.00,CLR,,0.00,WeatherDisplay:10.37,2013-03-13 19:54:00,
2013-03-13 15:59:00,72.2,39.9,30.07,NNW,347,3.5,3.5,31,0.00,CLR,,0.00,WeatherDisplay:10.37,2013-03-13 19:59:00,
2013-03-13 16:04:00,72.2,40.7,30.08,North,5,7.0,7.0,32,0.00,CLR,,0.00,WeatherDisplay:10.37,2013-03-13 20:04:00,
2013-03-13 16:09:00,72.1,39.8,30.07,NNE,16,3.0,3.0,31,0.00,CLR,,0.00,WeatherDisplay:10.37,2013-03-13 20:09:00,
2013-03-13 16:14:00,71.9,38.8,30.07,North,5,5.8,5.8,30,0.00,CLR,,0.00,WeatherDisplay:10.37,2013-03-13 20:14:00,
2013-03-13 16:19:00,71.8,41.1,30.07,North,5,1.1,1.1,33,0.00,CLR,,0.00,WeatherDisplay:10.37,2013-03-13 20:19:00,
2013-03-13 16:24:00,71.7,39.4,30.07,North,355,5.0,5.0,31,0.00,CLR,,0.00,WeatherDisplay:10.37,2013-03-13 20:24:00,
2013-03-13 16:29:00,71.6,37.6,30.07,NE,38,3.5,3.5,29,0.00,CLR,,0.00,WeatherDisplay:10.37,2013-03-13 20:29:00,
2013-03-13 16:34:00,71.4,38.3,30.07,WNW,298,4.6,4.6,30,0.00,CLR,,0.00,WeatherDisplay:10.37,2013-03-13 20:34:00,
2013-03-13 16:39:00,71.4,39.2,30.07,NNW,345,3.5,3.5,31,0.00,CLR,,0.00,WeatherDisplay:10.37,2013-03-13 20:39:00,
2013-03-13 16:44:00,71.3,39.1,30.07,NNW,348,5.0,5.0,31,0.00,CLR,,0.00,WeatherDisplay:10.37,2013-03-13 20:44:00,
2013-03-13 16:49:00,71.2,38.2,30.06,NNE,29,4.0,4.0,30,0.00,CLR,,0.00,WeatherDisplay:10.37,2013-03-13 20:49:00,
2013-03-13 16:54:00,70.9,36.1,30.06,NW,313,6.9,6.9,28,0.00,CLR,,0.00,WeatherDisplay:10.37,2013-03-13 20:54:00,
2013-03-13 16:59:00,70.8,37.0,30.05,North,355,6.9,6.9,29,0.00,CLR,,0.00,WeatherDisplay:10.37,2013-03-13 20:59:00,
2013-03-13 17:04:00,70.8,37.0,30.06,NNE,15,6.0,6.0,29,0.00,CLR,,0.00,WeatherDisplay:10.37,2013-03-13 21:04:00,
2013-03-13 17:09:00,70.8,37.8,30.06,NNW,347,3.0,3.0,30,0.00,CLR,,0.00,WeatherDisplay:10.37,2013-03-13 21:09:00,
2013-03-13 17:14:00,70.8,36.1,30.06,West,276,3.5,3.5,28,0.00,CLR,,0.00,WeatherDisplay:10.37,2013-03-13 21:14:00,
2013-03-13 17:19:00,70.7,37.7,30.06,North,355,3.5,3.5,30,0.00,CLR,,0.00,WeatherDisplay:10.37,2013-03-13 21:19:00,
2013-03-13 17:24:00,70.6,37.6,30.05,NNE,33,4.6,4.6,30,0.00,CLR,,0.00,WeatherDisplay:10.37,2013-03-13 21:24:00,
2013-03-13 17:29:00,70.6,37.6,30.05,North,9,10.4,10.4,30,0.00,CLR,,0.00,WeatherDisplay:10.37,2013-03-13 21:29:00,
2013-03-13 17:34:00,70.7,36.9,30.06,NNE,13,7.0,7.0,29,0.00,CLR,,0.00,WeatherDisplay:10.37,2013-03-13 21:34:00,
2013-03-13 17:39:00,70.7,37.7,30.06,NNE,15,3.5,3.5,30,0.00,CLR,,0.00,WeatherDisplay:10.37,2013-03-13 21:39:00,
2013-03-13 17:44:00,70.5,36.7,30.06,North,9,4.6,4.6,29,0.00,CLR,,0.00,WeatherDisplay:10.37,2013-03-13 21:44:00,
2013-03-13 17:49:00,70.3,36.5,30.06,North,5,5.0,5.0,29,0.00,CLR,,0.00,WeatherDisplay:10.37,2013-03-13 21:49:00,
2013-03-13 17:54:00,70.0,37.1,30.06,North,355,4.6,4.6,30,0.00,CLR,,0.00,WeatherDisplay:10.37,2013-03-13 21:54:00,
2013-03-13 17:59:00,69.7,36.0,30.06,NNW,338,5.8,5.8,29,0.00,CLR,,0.00,WeatherDisplay:10.37,2013-03-13 21:59:00,
2013-03-13 18:04:00,69.4,35.7,30.06,NNW,347,5.8,5.8,29,0.00,CLR,,0.00,WeatherDisplay:10.37,2013-03-13 22:04:00,
2013-03-13 18:09:00,69.3,35.7,30.06,NNE,22,4.6,4.6,29,0.00,CLR,,0.00,WeatherDisplay:10.37,2013-03-13 22:09:00,
2013-03-13 18:14:00,69.1,34.6,30.06,North,355,3.5,3.5,28,0.00,CLR,,0.00,WeatherDisplay:10.37,2013-03-13 22:14:00,
2013-03-13 18:19:00,68.9,36.2,30.06,North,349,8.0,8.0,30,0.00,CLR,,0.00,WeatherDisplay:10.37,2013-03-13 22:19:00,
2013-03-13 18:24:00,68.6,35.1,30.06,North,355,5.0,5.0,29,0.00,CLR,,0.00,WeatherDisplay:10.37,2013-03-13 22:24:00,
2013-03-13 18:29:00,68.4,34.9,30.06,North,10,2.3,2.3,29,0.00,CLR,,0.00,WeatherDisplay:10.37,2013-03-13 22:29:00,
2013-03-13 18:34:00,68.2,34.7,30.06,NNW,344,5.8,5.8,29,0.00,CLR,,0.00,WeatherDisplay:10.37,2013-03-13 22:34:00,
2013-03-13 18:39:00,68.0,35.4,30.06,North,351,3.5,3.5,30,0.00,CLR,,0.00,WeatherDisplay:10.37,2013-03-13 22:39:00,
2013-03-13 18:44:00,67.8,35.2,30.06,NNW,348,5.8,5.8,30,0.00,CLR,,0.00,WeatherDisplay:10.37,2013-03-13 22:44:00,
2013-03-13 18:49:00,67.6,36.7,30.06,North,9,2.3,2.3,32,0.00,CLR,,0.00,WeatherDisplay:10.37,2013-03-13 22:49:00,
2013-03-13 18:54:00,67.4,35.7,30.06,NNW,340,4.6,4.6,31,0.00,CLR,,0.00,WeatherDisplay:10.37,2013-03-13 22:54:00,
2013-03-13 18:59:00,67.2,35.5,30.06,NNW,342,3.5,3.5,31,0.00,CLR,,0.00,WeatherDisplay:10.37,2013-03-13 22:59:00,
2013-03-13 19:04:00,67.0,36.1,30.07,North,9,2.0,2.0,32,0.00,CLR,,0.00,WeatherDisplay:10.37,2013-03-13 23:04:00,
2013-03-13 19:09:00,66.7,36.7,30.07,NNE,13,3.5,3.5,33,0.00,CLR,,0.00,WeatherDisplay:10.37,2013-03-13 23:09:00,
2013-03-13 19:14:00,66.4,36.4,30.07,NNE,24,1.1,1.1,33,0.00,CLR,,0.00,WeatherDisplay:10.37,2013-03-13 23:14:00,
2013-03-13 19:19:00,66.1,36.1,30.07,NNE,24,1.1,0.0,33,0.00,CLR,,0.00,WeatherDisplay:10.37,2013-03-13 23:19:00,
2013-03-13 19:24:00,65.8,36.6,30.07,NNE,24,0.0,0.0,34,0.00,CLR,,0.00,WeatherDisplay:10.37,2013-03-13 23:24:00,
2013-03-13 19:29:00,65.5,37.1,30.07,NNE,24,2.3,0.0,35,0.00,CLR,,0.00,WeatherDisplay:10.37,2013-03-13 23:29:00,
2013-03-13 19:34:00,65.1,36.0,30.07,NNW,346,2.3,2.3,34,0.00,CLR,,0.00,WeatherDisplay:10.37,2013-03-13 23:34:00,
2013-03-13 19:39:00,64.8,35.8,30.08,NNW,334,2.0,2.0,34,0.00,CLR,,0.00,WeatherDisplay:10.37,2013-03-13 23:39:00,
2013-03-13 19:44:00,64.5,35.5,30.07,North,5,2.3,2.3,34,0.00,CLR,,0.00,WeatherDisplay:10.37,2013-03-13 23:44:00,
2013-03-13 19:49:00,64.2,35.2,30.07,North,360,3.5,3.5,34,0.00,CLR,,0.00,WeatherDisplay:10.37,2013-03-13 23:49:00,
2013-03-13 19:54:00,63.9,35.0,30.08,North,9,3.5,3.5,34,0.00,CLR,,0.00,WeatherDisplay:10.37,2013-03-13 23:54:00,
2013-03-13 19:59:00,63.6,35.4,30.08,NNW,343,1.1,1.1,35,0.00,CLR,,0.00,WeatherDisplay:10.37,2013-03-13 23:59:00,
2013-03-13 20:04:00,63.4,35.2,30.08,North,5,1.1,1.1,35,0.00,CLR,,0.00,WeatherDisplay:10.37,2013-03-14 00:04:00,
2013-03-13 20:09:00,63.1,35.0,30.08,NNW,345,3.5,3.5,35,0.00,CLR,,0.00,WeatherDisplay:10.37,2013-03-14 00:09:00,
2013-03-13 20:14:00,62.9,35.5,30.09,NNW,346,0.0,0.1,36,0.00,CLR,,0.00,WeatherDisplay:10.37,2013-03-14 00:14:00,
2013-03-13 20:19:00,62.6,35.3,30.09,NNW,346,0.0,0.1,36,0.00,CLR,,0.00,WeatherDisplay:10.37,2013-03-14 00:19:00,
2013-03-13 20:24:00,62.3,35.7,30.09,NNW,347,1.1,0.0,37,0.00,CLR,,0.00,WeatherDisplay:10.37,2013-03-14 00:24:00,
2013-03-13 20:29:00,62.2,35.6,30.09,North,355,1.0,0.0,37,0.00,CLR,,0.00,WeatherDisplay:10.37,2013-03-14 00:29:00,
2013-03-13 20:34:00,61.9,35.3,30.09,North,9,1.1,0.0,37,0.00,CLR,,0.00,WeatherDisplay:10.37,2013-03-14 00:34:00,
2013-03-13 20:39:00,61.7,36.5,30.09,North,9,0.0,0.0,39,0.00,CLR,,0.00,WeatherDisplay:10.37,2013-03-14 00:39:00,
2013-03-13 20:44:00,61.4,36.2,30.09,North,9,1.1,0.0,39,0.00,CLR,,0.00,WeatherDisplay:10.37,2013-03-14 00:44:00,
2013-03-13 20:49:00,61.1,36.6,30.10,North,9,1.1,0.0,40,0.00,CLR,,0.00,WeatherDisplay:10.37,2013-03-14 00:49:00,
2013-03-13 20:54:00,60.8,36.3,30.10,North,9,0.0,0.0,40,0.00,CLR,,0.00,WeatherDisplay:10.37,2013-03-14 00:54:00,
2013-03-13 20:59:00,60.6,35.5,30.10,North,9,1.1,0.0,39,0.00,CLR,,0.00,WeatherDisplay:10.37,2013-03-14 00:59:00,
2013-03-13 21:04:00,60.3,36.5,30.10,North,9,0.0,0.0,41,0.00,CLR,,0.00,WeatherDisplay:10.37,2013-03-14 01:04:00,
2013-03-13 21:09:00,60.1,36.3,30.11,North,9,0.0,0.0,41,0.00,CLR,,0.00,WeatherDisplay:10.37,2013-03-14 01:09:00,
2013-03-13 21:14:00,59.8,36.0,30.11,North,9,0.0,0.0,41,0.00,CLR,,0.00,WeatherDisplay:10.37,2013-03-14 01:14:00,
2013-03-13 21:19:00,59.5,37.0,30.11,North,9,0.0,0.0,43,0.00,CLR,,0.00,WeatherDisplay:10.37,2013-03-14 01:19:00,
2013-03-13 21:24:00,59.2,37.9,30.11,North,9,0.0,0.0,45,0.00,CLR,,0.00,WeatherDisplay:10.37,2013-03-14 01:24:00,
2013-03-13 21:29:00,59.0,37.1,30.12,North,9,0.0,0.0,44,0.00,CLR,,0.00,WeatherDisplay:10.37,2013-03-14 01:29:00,
2013-03-13 21:34:00,58.8,36.3,30.12,North,9,0.0,0.0,43,0.00,CLR,,0.00,WeatherDisplay:10.37,2013-03-14 01:34:00,
2013-03-13 21:39:00,58.6,36.7,30.12,North,9,1.1,0.0,44,0.00,CLR,,0.00,WeatherDisplay:10.37,2013-03-14 01:39:00,
2013-03-13 21:44:00,58.3,36.5,30.12,North,9,0.0,0.0,44,0.00,CLR,,0.00,WeatherDisplay:10.37,2013-03-14 01:44:00,
2013-03-13 21:49:00,58.1,36.3,30.12,North,9,1.1,0.0,44,0.00,CLR,,0.00,WeatherDisplay:10.37,2013-03-14 01:49:00,
2013-03-13 21:54:00,57.8,37.1,30.13,North,9,0.0,0.0,46,0.00,CLR,,0.00,WeatherDisplay:10.37,2013-03-14 01:54:00,
2013-03-13 21:59:00,57.5,36.9,30.13,North,9,1.1,0.0,46,0.00,CLR,,0.00,WeatherDisplay:10.37,2013-03-14 01:59:00,
2013-03-13 22:04:00,57.3,37.2,30.13,North,9,0.0,0.0,47,0.00,CLR,,0.00,WeatherDisplay:10.37,2013-03-14 02:04:00,
2013-03-13 22:09:00,57.1,36.5,30.13,North,9,0.0,0.0,46,0.00,CLR,,0.00,WeatherDisplay:10.37,2013-03-14 02:09:00,
2013-03-13 22:14:00,56.8,35.7,30.13,North,9,0.0,0.0,45,0.00,CLR,,0.00,WeatherDisplay:10.37,2013-03-14 02:14:00,
2013-03-13 22:19:00,56.6,36.0,30.13,North,9,0.0,0.0,46,0.00,CLR,,0.00,WeatherDisplay:10.37,2013-03-14 02:19:00,
2013-03-13 22:24:00,56.4,36.4,30.13,North,9,0.0,0.0,47,0.00,CLR,,0.00,WeatherDisplay:10.37,2013-03-14 02:24:00,
2013-03-13 22:29:00,56.1,35.6,30.14,North,9,0.0,0.0,46,0.00,CLR,,0.00,WeatherDisplay:10.37,2013-03-14 02:29:00,
2013-03-13 22:34:00,55.9,36.5,30.14,North,9,0.0,0.0,48,0.00,CLR,,0.00,WeatherDisplay:10.37,2013-03-14 02:34:00,
2013-03-13 22:39:00,55.7,37.8,30.14,North,9,0.0,0.0,51,0.00,CLR,,0.00,WeatherDisplay:10.37,2013-03-14 02:39:00,
2013-03-13 22:44:00,55.3,37.5,30.14,North,9,0.0,0.0,51,0.00,CLR,,0.00,WeatherDisplay:10.37,2013-03-14 02:44:00,
2013-03-13 22:49:00,54.9,37.6,30.15,North,9,0.0,0.0,52,0.00,CLR,,0.00,WeatherDisplay:10.37,2013-03-14 02:49:00,
2013-03-13 22:54:00,54.6,37.3,30.15,North,9,0.0,0.0,52,0.00,CLR,,0.00,WeatherDisplay:10.37,2013-03-14 02:54:00,
2013-03-13 22:59:00,54.3,37.5,30.15,North,9,0.0,0.0,53,0.00,CLR,,0.00,WeatherDisplay:10.37,2013-03-14 02:59:00,
2013-03-13 23:04:00,54.0,38.2,30.15,North,9,0.0,0.0,55,0.00,CLR,,0.00,WeatherDisplay:10.37,2013-03-14 03:04:00,
2013-03-13 23:09:00,53.7,39.3,30.15,North,9,0.0,0.0,58,0.00,CLR,,0.00,WeatherDisplay:10.37,2013-03-14 03:09:00,
2013-03-13 23:14:00,53.4,39.0,30.16,North,9,0.0,0.0,58,0.00,CLR,,0.00,WeatherDisplay:10.37,2013-03-14 03:14:00,
2013-03-13 23:19:00,53.2,38.4,30.16,North,9,0.0,0.0,57,0.00,CLR,,0.00,WeatherDisplay:10.37,2013-03-14 03:19:00,
2013-03-13 23:24:00,53.0,38.2,30.16,North,9,0.0,0.0,57,0.00,CLR,,0.00,WeatherDisplay:10.37,2013-03-14 03:24:00,
2013-03-13 23:29:00,52.7,37.9,30.16,North,9,0.0,0.0,57,0.00,CLR,,0.00,WeatherDisplay:10.37,2013-03-14 03:29:00,
2013-03-13 23:34:00,52.5,39.0,30.16,North,9,0.0,0.0,60,0.00,CLR,,0.00,WeatherDisplay:10.37,2013-03-14 03:34:00,
2013-03-13 23:39:00,52.2,39.1,30.16,North,9,0.0,0.0,61,0.00,CLR,,0.00,WeatherDisplay:10.37,2013-03-14 03:39:00,
2013-03-13 23:44:00,51.9,38.4,30.16,North,9,0.0,0.0,60,0.00,CLR,,0.00,WeatherDisplay:10.37,2013-03-14 03:44:00,
2013-03-13 23:49:00,51.8,38.8,30.16,North,9,0.0,0.0,61,0.00,CLR,,0.00,WeatherDisplay:10.37,2013-03-14 03:49:00,
2013-03-13 23:54:00,51.7,37.4,30.16,North,9,0.0,0.0,58,0.00,CLR,,0.00,WeatherDisplay:10.37,2013-03-14 03:54:00,
2013-03-13 23:59:00,51.9,37.6,30.17,North,9,0.0,0.0,58,0.00,CLR,,0.00,WeatherDisplay:10.37,2013-03-14 03:59:00,